Notices

What's New in latest Release from April 7th, 2021:

- Updated Glossary, including Speed of Maximum Gust, and Total Hourly Precipitation

- Updated national and regional climate services offices contacts and prices information

- Addition of station inventory lists for 1981-2010, 1971-2000, and 1961-1990 Normals.

If you haven't already, please take our survey and provide feedback about our website: https://eccc.sondage-survey.ca/f/LanguageSelection.aspx?s=442ca660-fcf1-47c0-95a9-59707d6fd709

Hourly Data Report for April 17, 2017

MIRAMICHI RCS
NEW BRUNSWICK

47°00'34.000" N
65°27'54.000" W
33.00 m
8100989
71744
ACQ

Download Data

Hourly Data (April 2017)
Hourly Data Report for April 17, 2017
TIME
LST
Temp Definition
°C
Dew Point Definition
°C
Rel Hum Definition
%
Precip. Amount Definition
mm

Wind Dir Definition
10's deg

Wind Spd Definition
km/h
Visibility Definition
km
Stn Press Definition
kPa
Hmdx Definition


Wind Chill Definition


Weather Definition


00:00 0.7 0.1 96 3.4 4 9   100.33     LegendNANA
01:00 0.6 -0.1 95 1.6 3 14   100.28     LegendNANA
02:00 0.5 -0.3 94 0.3 3 12   100.33     LegendNANA
03:00 0.2 -0.4 96 0.5 4 11   100.31     LegendNANA
04:00 0.3 -0.4 95 0.2 2 8   100.36     LegendNANA
05:00 0.2 -0.8 93 0.0 4 12   100.42     LegendNANA
06:00 0.1 -0.6 95 0.0 3 9   100.46     LegendNANA
07:00 0.1 -0.7 94 0.0 4 12   100.49     LegendNANA
08:00 0.2 -0.9 92 0.3 5 11   100.55     LegendNANA
09:00 0.2 -1.3 90 0.0 6 20   100.59     LegendNANA
10:00 0.0 -1.1 92 0.0 5 18   100.62   -5 LegendNANA
11:00 0.0 -0.9 94 0.3 5 14   100.75   -4 LegendNANA
12:00 0.4 -0.7 93 0.5 7 17   100.78     LegendNANA
13:00 0.7 -0.1 95 0.0 7 23   100.81     LegendNANA
14:00 0.3 -0.9 92 0.0 7 22   100.92     LegendNANA
15:00 -0.1 -1.0 94 0.0 6 20   101.00   -5 LegendNANA
16:00 -0.3 -1.4 92 0.0 7 21   101.12   -6 LegendNANA
17:00 -0.5 -1.6 92 0.2 6 19   101.22   -6 LegendNANA
18:00 -0.6 -1.8 92 0.0 6 20   101.35   -6 LegendNANA
19:00 -0.8 -2.3 90 0.0 5 17   101.46   -6 LegendNANA
20:00 -1.0 -2.7 89 0.2 5 13   101.61   -5 LegendNANA
21:00 -1.1 -2.8 88 0.0 5 12   101.71   -5 LegendNANA
22:00 -1.2 -3.0 88 0.0 4 6   101.79   -3 LegendNANA
23:00 -1.4 -3.0 89 0.0 1 6   101.86   -4 LegendNANA

Notes on Data Quality.

Legend

  • E = Estimated
  • M = Missing
  • NA = Not Available*
  • [empty] = Indicates an unobserved value
Date modified: